Theta_e
307 299 296 296 299 301 304 304 303 305 304 305 302 300 298 297 298 300 301 302 302 297 296 297 296 296 297 298 300 302 298 296 297 297 298 299 300 301 300 303 305 307 309 311 312 316 318 321 324 324 325 325 325 326 327 327 327 327 327 326 326 327 327 326 325 324 323 323 322 322 323 323 323 324 325 324 324 324 325 325 325 325 325 325 325 325
305 297 297 300 303 304 304 305 304 304 306 305 302 299 297 298 296 301 299 301 304 299 297 298 298 297 298 300 301 302 300 297 297 297 299 300 301 302 302 301 304 307 307 308 308 312 317 319 321 323 324 322 323 324 326 326 327 327 327 326 327 327 328 327 327 326 325 324 325 324 324 324 324 323 323 324 324 325 325 325 325 325 326 326 325 324
298 296 300 303 306 307 306 305 304 303 303 304 302 300 297 297 299 294 296 298 298 300 292 292 297 298 300 300 302 302 302 302 300 299 301 301 301 302 302 300 300 303 305 306 308 310 316 318 320 322 323 324 325 325 325 326 326 326 327 326 327 327 328 328 328 328 326 326 325 325 324 325 322 323 325 325 325 325 325 326 326 325 325 326 325 325
292 297 302 305 306 305 303 304 304 303 303 302 301 297 295 299 297 290 292 293 297 296 292 291 290 292 294 296 297 300 301 303 303 302 301 302 302 302 303 302 301 300 303 304 306 307 313 317 319 321 322 324 324 324 325 325 326 327 326 327 326 327 327 328 328 326 328 328 327 327 325 324 325 323 322 324 323 325 324 325 326 326 326 326 326 326
296 300 305 305 305 304 301 302 302 301 299 302 302 299 298 298 300 296 292 293 293 292 294 292 291 293 294 295 297 300 300 300 301 301 302 301 302 303 304 303 302 301 302 303 305 306 309 315 317 320 322 323 323 324 324 325 326 327 326 327 326 327 327 328 326 326 327 325 325 327 325 322 322 322 323 324 325 326 325 326 326 327 326 326 327 327
298 303 306 303 303 303 302 300 301 301 298 300 302 302 301 301 294 294 293 292 288 288 291 293 284 284 289 294 296 299 298 299 301 300 300 300 301 300 301 302 303 303 302 303 304 306 308 314 318 320 321 321 322 323 324 326 326 327 327 327 326 326 327 327 327 326 326 325 326 324 324 322 323 323 324 323 324 325 325 325 327 327 327 327 327 327
300 304 304 301 301 300 300 300 302 302 298 297 300 303 303 300 295 293 293 293 286 285 290 293 288 285 288 291 292 294 294 297 299 299 301 301 301 300 301 302 303 305 304 302 303 305 307 311 316 319 320 321 322 323 325 325 325 326 326 326 326 326 326 327 326 326 324 325 326 325 325 325 324 323 324 326 326 326 327 327 326 328 328 328 328 328
302 301 302 302 301 299 298 298 301 302 298 294 299 302 303 297 294 293 293 293 287 290 291 292 289 283 287 293 295 295 295 296 297 298 300 301 301 302 302 302 303 304 306 306 303 304 307 309 314 317 320 321 322 324 324 324 325 325 325 326 326 326 325 326 327 326 325 325 325 325 325 324 324 324 323 324 325 325 325 326 327 326 327 328 330 329
302 299 300 299 299 299 297 300 302 303 298 296 298 303 301 301 296 294 292 288 289 288 285 286 289 286 281 287 292 293 294 295 297 299 299 300 301 302 302 303 303 304 305 306 305 303 304 306 310 315 318 321 322 322 322 323 324 325 325 324 325 326 325 325 325 325 325 324 325 324 324 323 324 325 324 320 322 323 323 324 325 326 327 328 330 331
303 303 303 302 299 297 301 300 301 303 298 297 298 300 300 298 296 294 287 290 286 284 286 285 288 285 286 289 293 291 291 295 297 298 299 299 300 302 303 303 303 303 302 302 305 304 304 304 306 311 315 317 320 321 321 322 323 323 323 323 323 324 325 325 324 324 325 324 323 324 323 323 323 322 322 321 321 322 322 324 324 325 326 327 328 329
302 307 307 303 300 302 302 300 300 302 299 298 299 296 294 291 288 285 285 284 286 284 287 288 288 288 284 286 292 289 291 296 296 295 295 297 299 301 303 303 303 302 300 301 302 303 303 302 303 305 308 312 315 316 317 318 319 320 321 322 321 323 325 324 324 324 324 324 323 323 323 323 322 322 322 321 321 321 321 323 323 324 325 326 327 328
297 302 302 302 306 303 304 299 299 299 298 298 290 290 292 288 287 285 285 284 283 284 283 288 288 289 284 282 290 295 295 294 297 296 296 297 298 299 301 302 303 301 300 300 300 300 301 300 299 299 304 306 310 311 314 317 317 318 320 321 321 321 322 323 324 324 324 324 323 323 323 323 323 322 322 321 321 321 321 322 323 323 324 324 325 326
294 298 299 300 302 303 300 297 294 296 296 295 292 293 289 281 283 282 285 282 282 282 283 284 287 284 287 288 289 294 295 297 295 297 298 298 298 297 298 300 301 299 297 298 299 300 300 301 301 299 300 302 306 310 313 315 317 318 319 319 320 320 321 323 323 324 324 324 324 323 323 323 323 322 322 321 321 321 322 322 322 321 322 323 323 325
291 295 297 297 298 303 302 295 289 290 293 293 293 290 287 279 277 279 278 279 278 281 282 283 286 285 287 289 296 297 300 299 296 296 297 297 295 295 297 297 298 297 298 298 299 299 300 300 301 301 301 301 305 308 311 313 315 317 318 318 319 320 320 320 321 323 323 324 324 324 324 323 322 322 322 322 322 322 322 322 322 322 323 322 323 324
285 286 292 295 293 300 302 300 297 294 293 294 294 295 289 286 278 277 277 278 277 277 280 282 284 280 284 285 291 300 301 298 297 295 294 293 293 295 294 295 295 295 295 296 297 299 299 299 299 300 300 300 302 305 308 310 312 313 315 317 317 319 318 319 320 321 322 323 324 324 324 324 323 323 322 323 323 322 321 321 321 322 323 323 323 323
289 289 294 299 296 301 300 300 297 295 292 291 293 295 289 289 283 278 276 279 275 275 276 278 283 282 288 290 293 292 292 293 293 296 294 296 294 295 295 295 296 296 296 296 296 297 297 298 297 297 297 298 298 299 302 304 307 309 313 314 317 318 316 315 316 318 320 321 321 320 321 322 322 321 322 321 320 321 321 321 321 321 321 322 322 322
291 287 293 297 296 300 300 298 298 300 288 291 294 290 294 293 287 278 279 281 277 275 277 277 281 284 287 293 296 297 294 295 291 291 293 295 294 292 295 295 295 296 296 296 297 297 298 296 297 298 297 297 297 297 299 301 302 305 306 306 307 307 305 309 312 315 315 317 316 318 319 319 319 320 320 321 320 319 318 319 320 320 320 320 320 321
289 287 290 294 290 296 298 301 298 301 296 292 288 293 294 293 290 286 280 275 275 273 276 280 282 281 283 283 289 294 294 295 292 292 292 292 291 293 295 294 296 296 296 296 296 296 296 299 300 299 299 299 299 299 298 298 297 299 300 301 302 300 304 304 306 308 311 313 314 315 316 318 319 320 319 318 317 317 316 317 317 316 317 317 318 319
294 283 285 290 294 294 297 299 295 297 296 296 293 297 293 285 286 284 280 276 272 272 271 276 280 280 284 286 287 290 292 294 294 292 290 291 292 293 294 294 294 294 294 295 295 296 297 298 299 300 300 298 298 299 299 298 299 298 297 299 301 302 303 304 307 308 309 311 314 315 315 314 315 315 315 313 315 315 315 316 315 315 314 313 312 311
296 285 285 288 292 293 296 296 288 293 293 293 296 294 294 288 287 284 285 276 280 273 274 272 277 279 286 287 288 291 292 294 295 293 291 293 294 295 296 295 294 295 296 296 296 298 299 299 298 298 298 298 299 298 298 299 299 300 300 300 300 300 300 300 303 304 307 307 310 311 308 308 310 311 311 311 312 312 312 312 310 311 309 312 308 312
290 290 283 287 291 293 289 292 291 293 289 289 291 290 291 288 287 287 287 281 279 273 272 272 275 280 282 289 292 296 294 294 296 296 295 293 294 295 295 295 294 295 296 296 297 298 298 297 295 295 295 296 296 295 295 298 299 299 298 299 299 301 300 301 302 302 305 305 306 305 307 306 306 307 307 307 307 308 307 308 306 309 309 306 311 310
287 288 285 286 287 289 292 297 296 296 295 293 293 290 292 289 285 284 281 285 278 279 275 274 279 279 283 290 296 296 297 296 295 296 295 292 293 294 294 293 294 294 295 297 298 296 296 294 294 294 294 293 294 294 295 296 296 295 297 299 298 297 300 301 301 303 304 301 302 303 303 304 303 304 304 305 305 305 304 304 306 305 305 305 304 306
292 287 287 285 287 290 293 292 291 296 297 294 294 290 294 292 288 284 281 282 283 284 277 274 275 279 288 289 291 295 293 293 294 293 294 293 292 292 293 293 294 296 297 298 297 295 295 295 295 295 296 296 296 296 295 295 298 298 298 297 297 298 298 298 300 298 299 300 301 300 300 300 300 301 302 303 302 299 298 299 299 299 304 301 302 303
293 286 285 284 286 289 290 291 291 291 295 292 292 290 292 290 291 290 287 281 284 282 282 280 278 281 287 289 289 290 289 291 291 292 294 292 291 292 294 295 296 295 294 293 293 293 294 293 292 293 294 296 295 294 296 297 297 298 297 298 297 297 295 294 295 296 296 297 297 297 297 298 296 298 298 299 295 295 296 297 297 297 302 303 304 307
291 287 288 282 282 284 284 288 288 289 291 292 291 292 294 295 293 288 285 281 281 283 283 283 279 285 288 285 286 286 288 291 292 291 291 293 291 293 294 295 295 294 293 293 293 293 292 292 293 297 297 297 296 295 295 296 298 298 298 296 297 296 295 296 294 296 294 293 294 294 295 295 293 295 294 295 295 297 298 299 300 299 302 302 303 305
292 289 288 282 277 276 276 278 281 284 288 292 293 293 293 293 292 289 287 283 283 279 283 282 284 289 289 288 290 289 287 291 290 290 291 292 292 293 291 292 293 293 294 293 292 292 295 296 296 295 295 297 296 296 296 296 296 296 296 296 293 296 293 294 291 292 292 290 292 292 292 291 290 291 292 293 294 296 298 298 300 300 299 300 305 303
287 291 290 289 286 284 286 288 292 293 290 287 289 292 291 293 294 292 289 287 284 282 281 285 288 288 286 290 287 288 288 288 290 289 291 291 292 291 290 292 293 294 295 294 295 295 292 292 295 296 296 297 295 295 296 296 296 295 294 294 293 294 295 294 294 293 293 292 292 291 291 292 293 295 297 298 298 298 298 298 297 297 299 298 299 300
287 288 290 290 290 291 292 290 293 293 290 290 290 290 292 291 291 290 288 287 291 285 281 284 287 286 289 289 286 288 289 288 289 289 289 289 291 293 293 291 293 292 292 291 293 294 295 295 295 294 294 294 295 294 294 294 295 296 296 297 295 294 294 296 298 299 298 297 297 297 296 295 295 296 297 297 298 299 298 298 297 297 296 296 298 298
291 288 291 291 290 291 291 292 294 293 293 292 291 291 290 291 290 288 289 292 291 286 285 290 291 288 290 291 292 291 290 292 292 293 291 290 290 290 291 292 293 294 294 294 296 295 294 294 294 294 294 294 293 294 293 293 293 292 293 293 294 294 295 296 299 299 298 298 298 297 297 296 295 297 297 296 297 297 297 296 295 294 294 294 294 294
294 290 291 292 289 289 290 291 293 292 292 292 291 292 292 291 291 291 292 293 292 290 292 293 292 291 294 294 294 294 291 291 291 289 289 289 291 292 291 291 292 293 294 295 295 296 296 295 295 295 295 293 294 294 294 294 294 295 295 294 293 294 294 297 299 298 298 297 297 296 297 297 297 297 296 295 296 295 292 292 291 291 291 292 292 292
295 289 293 290 288 287 289 290 291 292 291 289 291 292 292 292 292 292 292 293 293 292 293 292 291 291 296 297 295 294 294 290 291 289 292 292 291 291 292 292 292 292 292 293 293 293 294 294 294 292 293 294 294 295 297 297 297 295 294 294 294 295 295 298 298 298 297 297 297 297 297 297 297 296 295 295 293 291 291 290 289 289 289 289 290 291
294 289 291 289 286 285 288 288 289 290 290 289 288 290 291 290 288 290 290 293 291 289 291 291 289 290 295 293 292 292 293 293 293 292 292 292 292 292 292 293 293 292 291 292 293 293 293 293 292 293 294 294 295 295 296 295 295 294 295 294 295 294 294 296 296 297 297 297 297 297 297 296 294 293 292 291 291 291 290 289 289 289 289 288 289 289
293 290 288 288 286 286 288 288 287 287 287 285 286 290 291 292 293 294 294 294 293 294 290 288 289 296 292 295 295 289 292 292 293 293 292 293 292 292 293 294 293 292 292 292 292 293 293 293 293 294 296 296 297 296 296 296 295 295 296 295 295 292 293 295 296 296 296 296 297 297 297 294 293 292 291 291 291 290 289 289 289 288 288 289 288 287
293 290 288 291 286 287 287 285 287 285 279 281 293 295 294 292 292 290 290 292 294 295 293 295 296 297 292 292 293 291 293 293 294 294 296 296 294 291 291 291 292 292 292 292 293 294 294 294 293 294 296 298 298 298 296 295 296 297 295 293 291 293 294 295 295 296 296 296 297 296 295 293 293 292 291 290 289 289 289 289 289 288 288 288 287 288
290 291 289 290 288 286 285 286 283 279 281 293 296 296 296 296 295 293 293 294 294 295 295 295 296 296 295 292 292 294 294 296 295 296 295 294 295 294 293 293 292 292 292 293 293 293 293 293 293 293 292 294 296 294 292 292 293 290 291 292 293 292 293 293 293 295 295 295 295 294 294 293 293 292 290 289 289 288 288 289 288 288 288 288 288 288
290 290 290 289 288 286 285 285 278 280 288 291 293 296 297 297 295 293 291 294 295 295 295 294 296 296 295 295 294 293 293 293 292 293 294 294 294 295 294 294 293 292 292 294 294 295 294 293 293 293 294 296 294 294 294 295 293 291 292 290 293 291 292 292 293 294 294 294 294 294 294 293 292 291 290 289 288 288 288 288 288 288 288 287 287 287
290 291 290 287 289 284 284 285 285 288 286 289 290 291 293 291 291 290 286 290 295 295 294 294 295 296 296 297 294 293 291 291 292 298 297 294 294 293 295 296 295 294 295 296 296 296 295 295 294 295 295 293 294 296 296 294 292 292 290 291 290 290 290 290 292 292 292 293 293 293 293 293 292 290 289 289 288 288 288 288 287 287 288 288 288 288
291 288 288 288 286 288 285 283 285 284 282 286 293 295 298 298 297 296 292 290 296 296 297 296 295 296 296 297 294 292 293 293 293 296 298 294 296 295 292 294 294 294 296 298 297 293 292 294 293 292 293 293 293 296 297 292 293 292 291 291 289 290 290 290 291 291 291 292 292 292 292 292 292 290 289 289 288 288 288 288 288 288 288 288 288 288
290 290 286 287 286 286 285 283 282 282 285 293 293 295 296 297 296 294 288 287 295 296 298 297 296 297 296 295 291 291 291 291 292 295 296 298 293 294 295 295 295 296 298 298 297 295 293 293 294 293 291 290 292 294 292 291 291 292 292 291 290 290 290 290 291 290 291 291 292 292 292 292 291 291 289 289 289 288 288 287 288 287 287 287 287 287
285 284 285 284 283 286 286 284 283 286 287 290 293 295 295 296 297 293 282 284 296 298 298 297 297 297 296 295 293 294 293 291 293 293 296 297 298 297 298 298 297 297 299 298 296 295 294 292 290 290 292 292 294 294 291 291 292 292 292 290 289 289 291 291 292 290 290 291 291 291 291 291 290 290 289 289 289 288 288 288 287 287 287 287 287 287
283 284 284 281 284 285 286 285 286 286 288 290 294 295 295 299 296 286 282 291 296 298 298 299 298 297 297 293 294 293 297 299 299 295 294 296 297 298 299 300 300 300 300 299 298 293 292 291 293 294 294 295 295 291 291 291 292 291 291 290 289 290 292 291 288 288 289 290 291 291 291 291 290 289 289 289 288 288 287 288 288 287 287 287 287 286
283 284 284 285 283 282 284 285 285 287 289 291 292 295 297 294 286 285 296 293 293 294 297 299 298 296 297 296 296 298 300 300 300 292 289 292 296 298 298 298 298 299 299 299 298 295 291 289 291 291 292 292 292 291 291 291 292 292 290 289 289 291 291 287 287 288 289 290 290 290 290 289 289 289 289 288 287 287 287 287 287 287 287 287 287 286
283 282 280 281 284 285 284 282 283 281 289 294 293 292 294 291 291 295 292 289 288 290 292 293 296 296 296 296 297 298 299 298 296 296 293 290 293 295 296 296 296 297 297 298 298 291 291 291 291 291 292 292 289 290 290 291 291 290 289 289 290 289 286 286 287 288 289 289 290 289 289 289 288 288 288 287 287 287 287 286 286 286 286 286 286 286
288 282 283 284 286 280 283 280 282 288 288 291 295 290 293 295 290 292 296 292 288 288 289 290 292 295 296 298 297 297 298 298 296 293 292 290 290 292 292 292 292 293 295 297 299 296 290 292 292 292 291 289 288 290 290 290 291 290 289 289 287 286 286 286 287 287 288 288 288 288 288 288 288 288 288 287 287 287 286 286 286 286 286 286 286 286
288 285 287 283 286 285 284 287 290 287 289 294 297 294 295 297 291 288 289 290 291 289 287 293 293 293 296 297 297 297 296 295 296 295 294 295 293 292 292 293 294 294 295 296 296 290 289 292 291 291 289 286 287 288 289 289 290 289 289 288 286 287 287 287 287 287 288 288 288 288 287 287 287 287 287 287 287 287 286 286 286 286 286 286 286 286
290 292 288 289 286 290 291 293 292 291 290 293 295 293 292 293 293 290 291 291 289 289 289 289 290 292 293 294 296 292 295 296 295 295 293 295 296 296 295 296 297 296 292 289 288 287 289 289 289 289 289 286 286 287 288 288 289 289 289 286 287 287 287 287 287 287 287 287 287 287 287 287 286 286 286 287 287 287 287 286 286 286 286 286 286 286
288 289 289 286 286 286 283 291 292 293 294 293 294 295 292 291 290 287 289 291 291 288 289 287 289 289 290 290 293 294 293 293 293 295 295 296 296 297 296 295 295 293 291 291 291 288 288 288 289 289 288 288 285 286 287 287 285 285 285 286 287 287 287 287 287 286 286 287 287 287 287 287 287 286 286 286 287 287 287 287 286 286 286 286 286 285
284 289 287 287 286 286 286 290 293 294 294 295 295 294 294 296 291 285 286 286 286 286 287 289 288 289 287 289 292 292 293 293 293 295 295 295 296 295 293 290 290 290 290 289 288 287 288 289 289 289 288 288 286 285 284 284 284 283 285 285 286 286 287 286 286 286 286 286 286 286 287 286 284 285 286 286 286 286 286 286 286 286 286 286 286 285
286 289 284 287 287 288 290 290 291 291 290 291 291 290 293 294 295 293 286 285 285 288 287 284 286 288 289 293 290 290 290 292 293 293 293 293 291 290 289 288 287 288 288 288 286 286 289 289 289 289 288 288 283 282 282 281 281 282 284 285 285 286 286 285 284 284 284 285 285 285 285 286 285 286 286 286 286 286 287 286 286 286 286 286 287 287
287 284 286 287 285 285 286 289 289 286 287 292 293 292 291 291 291 292 291 291 291 289 286 285 286 284 285 286 288 289 291 292 293 291 290 290 290 288 286 286 286 286 286 284 282 282 284 284 286 286 286 282 281 282 281 280 280 281 283 284 284 286 285 283 283 283 283 284 283 284 284 284 285 285 285 286 286 285 283 283 285 286 286 283 284 285
286 287 288 286 285 284 289 291 292 293 292 294 294 289 290 291 290 291 292 292 292 291 289 290 291 291 289 287 285 287 289 290 291 290 288 288 288 287 288 287 287 286 285 282 282 280 283 282 282 282 282 281 281 281 280 279 279 280 281 283 284 285 284 283 282 282 282 282 282 282 282 283 283 283 284 284 283 282 281 278 278 284 284 283 281 283
Wind_Speed
7 11 11 16 15 12 11 13 14 7 7 6 8 6 7 6 3 3 6 5 12 7 13 13 11 9 12 10 10 9 7 7 7 8 9 8 9 9 8 10 11 12 13 10 12 11 11 12 11 10 10 11 11 12 13 13 12 13 14 12 13 11 11 10 10 10 10 9 7 7 9 10 9 9 9 9 9 9 9 8 9 9 9 9 10 10
9 11 16 16 15 16 16 12 7 10 3 9 8 5 6 6 7 3 6 6 10 10 8 8 7 11 12 9 9 8 8 12 11 11 11 11 11 11 11 11 11 13 6 6 6 7 8 10 10 9 10 10 12 13 14 15 15 13 12 14 13 11 11 12 12 11 11 11 11 11 11 9 9 9 10 10 9 10 9 9 9 9 9 10 11 10
11 18 17 13 11 11 11 11 13 13 10 5 7 6 4 6 3 3 1 1 3 5 7 2 10 12 10 10 9 9 10 10 12 13 15 14 14 12 11 10 10 7 9 8 10 9 10 11 11 11 11 12 15 14 15 15 13 13 13 13 12 12 13 12 13 11 12 10 9 9 5 7 5 4 6 6 7 7 8 9 9 9 9 10 10 10
13 12 9 13 11 13 11 13 14 12 8 6 5 5 7 4 6 4 3 1 1 4 1 0 4 7 5 8 11 10 9 8 10 15 15 14 15 14 14 13 11 10 10 11 12 11 11 12 12 11 11 13 12 11 11 12 15 13 13 12 13 13 13 12 12 12 10 9 8 7 5 5 5 4 3 4 4 6 7 9 9 8 9 10 10 10
10 5 11 12 12 15 15 14 14 11 10 7 5 3 4 4 7 7 5 0 1 3 2 2 6 10 6 10 10 9 10 10 10 8 12 12 11 12 10 8 9 12 12 12 11 10 10 10 13 15 15 13 13 13 14 14 14 12 16 15 14 13 13 12 12 13 9 8 7 7 4 3 4 3 5 6 8 8 9 9 9 11 8 8 9 10
7 11 13 16 14 12 13 14 16 12 11 7 8 10 6 2 4 3 6 5 2 3 3 3 3 7 4 10 14 8 4 10 8 10 13 11 9 7 9 10 8 8 10 14 14 14 13 14 13 12 13 12 13 13 14 14 15 14 13 13 13 11 11 13 13 13 10 10 11 9 10 10 10 11 11 14 16 13 12 14 10 6 9 9 9 8
6 12 14 16 14 13 13 12 14 12 10 10 8 10 8 2 5 7 6 4 1 5 3 3 8 9 4 4 4 5 3 8 6 9 14 12 10 9 11 11 12 13 11 9 9 11 12 13 13 14 14 14 15 15 13 12 12 13 12 13 14 13 11 12 11 13 11 11 11 14 14 13 13 13 13 12 8 9 9 7 9 9 8 9 10 9
9 15 16 15 16 14 11 12 10 14 8 7 2 11 7 6 8 6 6 6 2 1 2 1 2 4 11 9 5 7 8 10 10 12 11 12 12 13 13 13 13 15 14 13 13 12 12 13 16 17 15 14 15 15 11 11 11 13 14 13 14 12 11 10 11 13 14 13 13 13 13 12 13 14 13 10 9 7 7 9 10 8 9 9 10 11
19 15 17 16 14 12 13 8 7 11 7 3 3 8 9 8 6 6 6 3 0 1 7 4 0 2 7 7 2 2 7 10 15 14 11 12 13 14 15 16 16 16 16 14 12 12 13 14 13 13 14 14 14 12 12 13 13 13 12 12 11 12 11 10 12 13 14 14 13 13 11 12 12 12 9 6 7 8 7 9 9 10 10 10 12 13
8 16 17 18 14 12 8 5 7 12 9 2 4 4 4 6 5 5 4 4 1 1 11 6 4 6 9 8 7 2 5 15 17 11 12 10 12 14 15 16 16 13 9 9 12 12 12 12 12 11 11 12 13 11 10 10 10 10 9 11 12 13 11 10 11 12 14 14 11 12 13 15 13 10 8 6 8 9 8 11 10 10 10 11 11 12
7 10 10 9 12 10 8 5 7 9 4 4 9 8 7 7 4 3 5 4 3 8 10 8 7 5 10 6 11 6 10 11 8 6 4 6 10 12 14 15 14 12 10 10 10 9 10 10 11 9 11 12 9 8 8 8 8 8 9 11 12 14 11 10 12 12 14 13 12 14 14 15 14 11 10 9 10 8 8 11 11 11 11 10 12 11
4 9 9 4 11 5 10 6 1 5 9 10 3 6 8 4 6 5 2 3 3 10 3 11 8 8 11 4 9 10 7 7 9 8 7 9 10 11 10 11 12 10 10 9 8 8 8 6 6 6 10 9 9 7 9 9 8 8 9 10 12 11 11 11 12 12 13 12 14 13 14 15 14 11 10 13 12 11 11 11 10 9 8 10 10 10
7 13 5 6 5 16 12 9 1 5 7 9 9 9 11 3 3 3 2 5 11 8 0 1 6 1 20 5 6 9 11 13 6 8 10 10 9 8 9 11 10 8 6 7 8 8 8 10 11 9 8 7 8 10 10 11 10 10 10 11 13 13 12 12 12 13 14 12 14 15 14 13 11 11 11 10 10 9 10 9 9 8 10 8 9 11
6 3 10 8 6 10 14 14 6 7 9 13 15 12 11 6 4 8 3 2 5 5 3 4 3 8 3 5 12 23 22 13 10 10 9 8 7 6 7 7 6 6 7 8 9 9 9 10 10 10 10 10 10 10 12 11 11 10 10 12 13 15 11 10 10 13 13 15 15 12 12 11 9 10 10 10 10 10 10 9 10 10 10 10 12 10
10 9 12 15 10 10 18 16 15 9 13 10 4 12 9 7 6 8 6 10 9 6 1 2 6 8 8 6 8 22 20 5 6 7 6 6 4 5 3 2 4 6 6 6 7 7 8 9 8 9 9 9 9 9 10 9 9 9 10 11 13 13 11 11 13 10 12 13 12 10 9 9 9 10 10 11 11 10 10 9 9 9 9 10 9 10
18 4 4 12 1 13 16 6 8 11 5 1 4 6 6 12 5 4 3 3 2 1 0 2 8 5 7 3 7 8 9 9 6 8 6 7 4 1 4 4 5 5 5 5 6 6 6 7 6 5 5 6 7 8 7 8 8 9 11 12 14 14 9 9 8 9 10 9 7 7 9 11 11 10 10 9 9 9 8 8 9 10 9 9 8 7
9 12 8 6 5 19 14 10 6 15 12 8 9 12 9 4 4 2 2 0 3 2 9 3 7 7 7 11 13 13 10 12 5 5 7 9 7 5 6 6 6 7 7 6 5 5 6 4 5 6 7 7 7 6 9 11 10 10 8 7 7 6 4 6 7 7 6 7 7 9 8 8 9 10 11 11 9 7 6 7 8 8 8 7 7 7
17 7 3 11 3 2 3 16 9 11 6 6 8 10 4 3 4 5 5 1 1 5 6 5 12 4 1 10 2 12 11 14 6 7 6 6 4 6 8 7 8 8 7 6 6 5 5 6 8 8 7 8 10 10 8 8 6 6 6 6 6 5 7 6 6 7 7 8 8 8 8 8 9 9 8 7 7 6 7 7 6 6 6 6 6 7
10 6 3 3 8 4 4 10 5 2 1 13 10 5 12 6 9 3 2 6 4 5 5 4 5 5 11 10 1 4 11 12 9 6 4 5 6 8 8 9 7 5 4 5 6 6 5 6 7 8 9 6 6 6 6 5 5 5 6 6 7 9 8 8 8 7 7 7 7 7 8 7 6 5 5 5 6 6 7 7 7 6 6 4 4 4
9 8 2 3 5 5 7 11 13 11 2 2 7 9 6 3 4 7 9 2 4 5 1 7 2 9 10 7 8 8 9 12 11 8 7 9 9 10 10 8 8 7 7 6 5 6 7 8 8 7 7 6 7 6 5 6 5 7 7 8 8 7 6 6 6 6 7 7 6 5 4 5 5 5 5 5 6 6 5 5 4 5 5 5 4 5
9 4 9 3 1 8 9 8 15 17 15 9 10 10 7 2 1 4 1 5 6 4 5 3 6 9 7 8 12 15 10 12 14 13 11 9 10 11 10 8 7 6 6 6 6 7 7 7 5 4 3 3 2 2 4 5 7 6 5 6 6 7 6 6 6 6 6 6 5 5 5 5 4 5 4 4 4 4 4 4 4 5 5 4 5 5
4 8 13 9 7 11 11 9 11 18 15 15 16 15 15 13 7 11 9 1 3 3 6 6 13 5 4 3 12 14 14 11 10 10 10 8 9 10 8 6 7 6 6 7 7 6 5 4 4 3 2 2 4 4 5 4 4 5 5 5 5 5 5 6 6 6 5 5 4 5 5 5 4 4 4 4 3 4 3 2 2 2 1 4 4 4
7 4 11 14 11 13 8 1 2 7 12 5 8 6 9 6 4 6 9 9 5 7 3 3 3 10 8 2 6 9 6 6 7 7 8 7 8 8 8 7 7 8 9 8 7 6 6 5 5 6 6 7 7 6 5 5 5 6 6 5 5 6 6 5 5 4 4 4 4 4 4 3 4 3 4 4 3 3 2 2 1 0 1 2 2 2
12 6 11 6 6 4 3 2 3 2 7 3 4 3 8 12 14 14 8 3 8 3 8 4 6 7 2 1 2 2 5 6 5 8 10 5 4 5 6 6 7 5 5 4 4 5 4 5 4 4 5 6 6 6 7 7 5 6 5 6 5 6 5 4 4 5 4 4 4 3 3 3 2 2 2 3 3 3 1 0 1 2 1 2 2 2
10 6 15 10 6 3 5 2 2 3 2 7 9 12 15 15 15 4 3 1 5 11 8 9 13 11 5 2 2 3 2 5 6 5 5 6 4 6 7 6 5 6 5 4 5 5 4 5 7 8 8 8 7 6 7 7 7 7 6 5 6 5 5 5 4 5 5 5 5 3 3 2 1 1 1 1 1 1 1 1 1 2 2 2 3 3
4 10 18 19 20 18 16 15 17 13 18 14 16 20 17 19 20 12 15 6 12 4 10 8 13 7 2 2 1 2 2 0 0 0 1 2 6 8 5 4 5 5 6 5 5 5 8 9 8 8 8 8 7 8 8 8 7 6 5 6 6 6 5 5 4 4 4 4 4 3 2 1 1 1 1 0 1 0 1 1 1 2 2 1 2 3
4 8 10 13 19 22 22 16 5 9 8 11 9 16 19 18 18 13 5 8 15 4 9 11 14 9 3 7 4 4 3 5 4 2 4 5 3 4 4 5 6 6 7 8 9 9 6 6 11 12 9 8 8 7 8 8 7 6 6 6 6 6 6 6 5 4 4 3 3 3 4 3 2 1 1 0 0 0 1 1 1 1 1 1 1 1
4 10 17 14 17 12 6 6 13 14 17 18 19 19 14 11 10 15 16 19 11 6 10 6 12 15 20 9 4 8 6 5 4 3 4 4 5 6 5 4 5 5 5 5 6 8 12 12 9 8 9 8 9 8 6 6 7 8 9 9 7 6 6 6 6 5 5 5 5 5 5 4 3 2 3 2 3 2 2 3 4 4 3 1 1 1
10 12 16 15 16 10 11 13 15 14 14 15 18 18 22 19 15 17 19 18 10 11 18 22 21 19 21 10 12 11 7 7 9 11 8 5 2 3 3 5 6 7 6 6 8 7 6 7 8 9 9 10 7 8 8 7 7 6 5 5 6 7 8 7 7 7 7 7 7 6 5 4 4 4 5 5 5 5 5 5 4 4 4 3 3 3
8 11 10 13 12 9 11 14 16 17 13 15 17 18 19 22 22 23 23 23 21 16 20 24 20 23 24 15 14 10 5 7 6 2 2 4 7 7 6 6 8 8 8 9 9 9 9 10 9 10 9 7 9 8 8 8 9 9 10 9 8 8 7 8 9 9 8 8 7 6 6 6 5 5 4 4 4 4 4 3 3 3 3 3 3 3
10 10 16 12 12 9 10 11 13 17 18 18 18 19 19 18 19 22 20 20 18 19 21 25 23 21 19 9 7 5 6 5 1 4 7 9 8 7 8 9 10 10 10 9 8 10 10 10 9 6 6 8 8 10 11 11 9 8 8 8 9 10 9 9 9 8 8 8 7 7 6 6 6 5 5 5 4 3 4 4 4 3 3 3 2 2
7 4 8 8 11 8 8 14 14 16 18 18 17 19 18 19 20 20 21 23 21 22 23 21 18 18 22 6 5 6 8 10 11 10 9 8 8 9 10 12 11 10 10 10 11 10 10 10 8 8 9 10 11 11 9 9 8 8 11 10 11 9 8 9 8 9 8 7 7 7 7 6 5 6 5 5 5 5 5 4 4 4 3 3 3 2
11 8 12 12 13 13 14 15 13 10 8 11 18 21 25 26 26 25 25 22 17 15 18 19 24 25 2 11 11 6 10 13 14 11 10 11 11 12 14 14 11 9 9 11 11 12 12 11 12 12 11 9 11 11 12 11 10 12 11 12 10 8 9 9 8 8 7 7 7 7 6 6 6 6 6 5 5 5 5 5 4 4 4 4 3 3
10 6 7 10 13 12 11 9 10 10 15 17 17 29 30 28 25 19 18 21 20 17 17 19 21 13 7 8 10 10 13 10 12 13 14 14 12 9 9 8 9 10 10 10 11 14 13 11 9 10 12 13 13 14 10 10 13 11 8 7 7 10 9 9 8 8 8 7 7 7 7 7 7 7 6 5 5 5 5 5 5 4 4 4 3 4
14 12 8 8 10 9 11 14 11 18 16 13 9 9 16 20 19 24 26 26 22 22 24 25 24 20 7 4 8 11 12 13 13 15 14 10 9 11 13 14 12 11 11 12 12 13 10 10 10 10 9 9 11 8 6 7 7 5 7 8 9 8 9 8 8 8 8 8 7 7 8 8 7 7 6 5 5 5 5 5 4 5 5 4 5 5
14 14 8 7 5 5 10 13 12 14 4 1 9 17 18 16 21 20 22 22 25 30 30 27 24 13 7 13 10 5 5 6 6 10 12 9 9 11 11 10 11 11 12 11 14 16 12 12 13 14 15 13 8 8 9 11 8 7 7 7 9 9 8 8 8 8 7 8 8 9 8 8 8 7 6 6 5 6 5 5 6 7 5 4 3 3
3 8 8 9 7 12 9 14 13 3 3 2 4 10 17 21 22 22 20 25 23 11 8 15 20 18 17 17 5 2 2 3 8 16 10 10 8 7 10 12 13 14 12 13 17 17 13 15 15 15 12 8 10 10 12 9 9 8 7 8 8 9 8 8 9 10 10 10 9 9 9 9 9 8 7 7 7 6 6 6 5 4 4 5 5 4
4 9 4 11 7 6 11 10 9 5 14 12 18 6 16 15 15 17 17 21 10 17 21 25 27 25 23 17 8 5 1 7 15 22 9 11 11 8 6 7 7 7 11 19 15 8 8 11 10 7 7 8 10 12 10 8 10 10 9 9 8 9 9 9 11 10 10 11 10 10 9 9 9 9 8 8 8 8 7 6 4 5 5 6 6 5
1 2 3 8 5 8 8 13 10 13 17 15 11 8 8 6 9 10 2 19 14 21 25 25 25 20 14 9 5 7 6 13 23 10 14 15 9 8 11 13 13 16 19 18 16 14 12 12 14 13 8 7 9 10 7 9 11 11 11 9 10 9 10 12 11 11 13 12 10 9 9 9 9 9 8 9 8 7 7 7 7 5 5 4 4 4
3 3 3 4 5 8 11 11 12 6 8 4 14 14 12 15 16 14 9 16 26 20 18 18 24 20 12 10 13 14 17 18 24 6 8 14 19 18 20 19 17 16 19 19 14 14 13 11 7 6 10 12 16 13 10 10 10 12 11 11 8 10 12 14 15 11 7 7 8 8 8 8 9 8 8 8 7 6 6 5 4 5 5 4 4 4
2 1 3 5 3 5 12 7 2 4 2 5 16 14 16 17 16 14 17 23 1 18 19 20 21 13 11 12 15 16 21 22 12 8 11 13 13 16 17 19 20 20 20 19 18 13 9 10 13 16 17 17 15 9 11 11 12 12 12 10 11 13 17 12 7 9 10 8 8 9 9 8 8 8 7 6 6 5 4 4 5 5 5 5 4 4
2 2 1 3 4 5 3 8 7 2 3 8 6 15 18 15 12 19 17 4 8 2 13 14 14 11 16 18 15 17 18 17 12 7 6 10 14 17 18 18 16 16 18 19 21 12 7 6 8 9 8 8 9 11 12 13 14 15 11 10 13 18 10 6 8 9 10 10 9 8 8 7 6 7 7 5 6 7 5 4 4 5 6 5 5 6
5 4 3 4 2 1 2 2 4 10 2 11 13 9 8 13 13 7 4 5 3 6 7 7 10 10 12 14 16 18 17 12 11 15 12 12 14 14 15 15 15 16 16 16 16 7 9 8 11 12 14 11 9 10 12 13 14 13 11 13 18 9 7 7 8 9 9 10 9 8 8 7 8 7 6 7 7 8 7 6 6 5 5 6 6 6
2 3 1 2 2 4 6 7 5 1 3 4 17 14 17 5 3 5 1 4 1 4 4 5 7 10 15 16 17 18 18 17 14 9 8 8 11 12 9 9 9 10 12 16 19 15 9 12 11 11 10 9 9 10 11 14 15 13 12 17 6 7 7 8 8 9 9 9 9 8 8 8 8 7 7 8 7 7 8 7 6 6 5 5 6 5
5 3 3 2 3 4 3 2 5 0 4 5 9 4 0 4 2 6 3 1 1 4 2 7 8 10 13 16 16 17 15 11 11 12 13 14 12 12 14 15 16 18 18 19 19 9 8 12 12 12 8 6 8 8 10 10 14 13 15 8 8 9 11 10 10 10 10 10 9 9 8 8 7 8 7 7 8 8 8 8 8 7 5 6 5 5
2 6 2 0 2 2 6 6 5 5 5 9 9 4 4 7 8 5 4 5 4 1 1 2 5 6 8 8 10 7 10 12 13 11 11 14 15 16 18 20 20 18 10 5 4 3 8 7 6 6 8 7 7 8 8 9 9 14 12 8 9 10 11 12 12 11 11 10 10 10 10 10 8 8 8 8 7 8 7 9 8 7 7 6 5 5
4 3 2 3 2 4 7 6 12 16 12 10 11 12 7 2 4 4 4 1 2 2 1 2 5 4 4 4 7 9 9 8 9 14 14 14 17 19 17 15 15 10 7 9 11 7 7 8 8 9 9 11 9 9 9 9 7 6 6 10 9 10 11 11 12 11 11 11 10 10 10 11 9 9 8 8 7 6 7 7 7 7 7 6 6 6
3 4 4 4 4 8 10 6 9 11 12 12 11 9 12 15 6 2 3 3 3 3 2 3 1 1 4 4 9 8 11 10 12 14 14 15 16 14 10 6 8 8 9 8 6 5 7 9 11 12 11 12 11 9 8 7 7 6 7 7 9 9 10 11 12 12 12 12 10 10 10 10 11 11 9 8 8 8 8 6 7 7 8 8 8 8
4 5 5 5 7 8 9 9 9 9 10 13 9 6 7 9 10 8 1 4 5 7 7 6 6 6 7 9 6 6 7 10 10 11 11 9 7 7 7 7 6 8 8 8 8 9 12 11 13 13 13 10 6 7 7 7 7 7 10 10 10 12 12 11 10 10 11 10 10 10 9 9 10 9 9 9 7 6 6 8 7 6 5 3 4 4
3 6 3 5 8 8 11 12 4 7 11 13 9 7 7 8 8 9 8 9 10 9 7 6 6 5 6 7 6 7 9 12 13 9 10 9 8 8 7 7 7 7 8 6 4 5 5 5 7 8 8 6 7 7 8 8 7 7 8 10 10 12 13 12 11 11 11 10 10 10 10 9 9 8 8 8 8 8 5 2 4 4 5 3 2 3
9 6 7 9 8 11 12 11 7 11 15 17 10 5 6 7 7 9 11 12 12 10 8 8 10 11 10 10 7 8 10 11 14 9 6 7 7 7 7 7 7 7 7 5 5 5 6 6 5 6 7 8 7 8 8 8 8 9 8 10 10 12 13 13 12 10 9 10 10 11 10 10 9 9 8 7 8 7 8 6 2 4 5 6 5 6
Wind_Direction
149 165 189 205 207 198 200 196 192 218 190 178 201 207 204 201 252 246 221 191 179 166 213 216 223 237 249 240 239 232 231 240 230 222 226 225 227 229 215 212 214 212 214 207 205 201 196 195 193 189 184 187 188 188 189 191 191 188 188 182 191 188 179 176 181 186 186 186 187 194 197 204 200 201 198 203 205 206 208 202 199 197 198 197 198 201
167 189 212 205 197 198 200 193 187 249 304 190 197 200 219 188 222 234 208 200 186 172 244 230 235 240 245 248 239 235 218 226 221 226 230 228 226 226 227 222 215 218 225 215 219 213 200 196 194 185 184 181 184 197 190 193 195 191 185 190 192 185 188 189 185 186 192 196 196 193 200 195 195 194 198 204 205 206 205 204 203 201 199 196 198 199
191 210 205 190 187 186 195 188 193 222 228 224 205 204 219 227 205 318 297 108 182 184 270 243 231 247 253 257 253 234 219 222 218 216 220 222 228 230 228 226 220 216 217 208 213 201 199 198 194 187 188 190 192 192 193 195 190 192 192 195 189 190 190 194 191 187 197 198 200 197 193 189 200 219 209 211 208 203 204 207 207 203 199 198 202 197
200 220 165 168 167 169 177 187 195 217 239 211 226 184 213 197 169 266 284 2 210 155 221 40 296 273 260 260 256 247 231 231 223 221 225 217 222 223 222 216 211 209 209 210 208 206 201 196 195 193 192 194 193 188 193 192 194 195 198 194 191 193 193 193 195 197 196 193 194 201 189 193 192 199 211 217 216 213 211 218 210 209 200 201 201 198
193 132 150 160 170 172 177 182 190 193 220 225 212 215 215 221 209 176 202 116 354 341 63 357 317 284 232 262 265 251 236 236 234 233 239 235 231 227 230 228 208 205 203 208 213 213 198 199 200 197 197 192 191 194 195 194 194 196 199 197 191 191 194 195 192 192 180 168 178 185 183 173 208 238 216 215 226 213 213 219 214 215 201 199 201 199
188 147 151 170 178 179 175 184 195 182 205 221 229 213 211 182 105 111 119 110 45 307 278 124 326 278 250 232 244 258 261 255 242 236 238 232 230 233 238 232 230 228 205 200 206 205 200 199 201 203 199 193 198 200 201 198 198 197 198 195 194 192 194 197 193 184 177 180 179 176 186 198 204 213 210 213 215 207 208 213 214 206 202 205 205 201
174 159 166 170 179 186 189 191 189 180 193 193 225 188 201 135 131 135 143 108 214 220 277 153 201 273 316 277 251 254 261 251 264 237 244 241 235 222 222 220 222 221 223 228 218 208 203 204 198 201 199 197 198 205 201 199 200 200 198 196 196 196 196 195 191 182 182 185 189 191 196 200 203 210 219 221 220 213 218 214 211 212 206 209 209 212
160 169 172 178 178 185 189 200 189 182 171 211 219 165 183 114 132 172 148 176 200 240 302 23 138 245 289 261 229 237 249 256 251 246 239 232 231 231 228 221 219 219 215 211 213 210 210 203 198 200 201 200 203 203 195 198 199 200 200 196 198 200 198 194 188 186 189 192 195 197 202 205 210 212 219 205 214 208 202 208 214 206 212 210 213 215
169 173 174 172 184 190 200 187 160 175 176 215 193 169 188 169 161 153 130 161 203 76 279 237 9 259 245 274 293 233 257 265 257 246 237 229 226 226 227 225 223 220 215 207 206 209 209 210 210 206 199 205 206 202 195 197 199 201 200 196 197 201 200 195 187 190 195 198 197 200 203 211 220 219 221 192 199 202 195 208 206 206 210 210 213 214
170 175 182 170 174 198 184 163 168 177 189 257 122 77 80 78 77 115 103 107 353 85 246 186 175 227 261 279 263 260 224 257 254 244 238 232 225 223 224 227 226 224 220 213 212 207 209 210 209 209 208 203 205 202 203 205 199 198 194 196 196 204 200 195 190 192 198 200 197 201 207 213 217 212 214 193 205 204 195 212 208 206 207 209 212 213
151 172 158 163 189 191 167 193 181 183 170 149 97 82 62 51 46 36 70 86 47 255 244 163 201 174 286 208 232 159 220 228 262 260 244 239 237 232 225 221 222 217 210 211 213 211 209 207 202 196 207 211 208 201 191 199 199 196 193 196 199 206 199 192 196 193 199 198 199 208 209 213 217 207 205 208 217 207 203 213 211 207 210 207 212 209
122 145 178 205 177 135 148 194 332 155 148 130 104 126 86 18 17 34 357 44 182 257 146 178 181 172 234 285 269 227 247 222 219 241 240 239 233 230 226 225 224 213 207 207 206 215 215 216 217 194 206 207 207 194 197 197 192 192 196 195 203 208 199 196 197 197 202 197 205 212 212 215 217 205 206 212 218 211 215 217 217 213 212 215 212 212
162 179 162 162 162 157 174 153 16 136 164 126 124 131 149 198 69 263 102 224 212 229 246 224 168 90 238 223 259 271 222 245 231 219 229 234 240 235 232 226 221 208 199 197 206 212 213 212 210 204 210 200 197 198 196 195 192 195 195 195 200 210 203 199 193 198 202 200 207 209 212 218 213 210 213 216 221 215 217 216 217 206 214 213 215 216
203 170 182 173 155 184 160 174 150 161 195 151 163 161 156 137 172 216 218 318 312 281 269 145 120 250 278 277 220 260 255 221 220 226 231 223 224 234 232 223 212 203 192 198 203 207 208 210 213 208 201 198 197 197 194 194 192 193 195 197 199 212 202 200 196 201 201 206 210 207 211 214 206 214 214 219 220 217 216 212 215 212 212 209 215 214
154 193 210 162 206 168 180 186 178 164 165 169 117 163 175 160 161 207 171 197 212 219 238 253 123 236 150 252 220 227 250 272 246 227 228 232 219 193 210 161 160 176 201 195 197 201 204 208 203 201 200 198 198 195 195 194 195 189 196 196 203 212 202 197 202 201 205 211 211 206 208 208 205 212 213 220 220 216 215 213 215 219 217 218 217 213
188 206 175 180 90 170 179 156 116 111 96 252 141 78 151 209 125 151 200 154 207 175 248 206 211 188 187 243 282 251 279 277 238 233 242 257 242 178 144 163 173 186 188 190 184 201 207 199 197 200 195 202 199 198 195 196 193 193 202 200 205 208 198 195 197 202 206 210 200 200 202 205 205 211 214 222 218 218 210 211 214 221 219 222 222 220
156 212 164 166 193 174 178 147 170 147 175 196 146 199 195 92 88 90 9 270 95 47 247 167 295 282 299 287 262 277 275 271 243 237 217 223 228 190 191 196 195 194 195 197 200 203 212 218 221 204 200 202 203 198 200 201 196 200 198 197 209 210 188 198 204 205 204 201 197 210 207 203 203 206 212 218 219 215 207 211 218 219 221 222 218 218
166 145 183 158 144 244 155 161 168 175 119 98 174 199 91 60 119 158 217 16 168 194 263 153 227 283 357 274 250 221 239 254 242 230 225 226 203 202 215 211 208 205 205 203 207 215 216 209 203 208 210 203 200 204 205 206 199 196 191 192 196 194 201 212 204 209 205 202 207 209 210 212 209 208 215 215 218 211 213 222 220 221 228 222 216 214
118 92 295 254 151 140 79 104 119 260 355 174 180 144 148 196 215 226 137 229 182 227 270 265 239 255 207 239 17 239 229 244 255 237 225 228 209 214 224 226 230 236 230 233 232 232 227 215 212 205 207 208 204 200 198 188 177 178 186 189 188 199 202 200 204 207 211 207 211 208 212 210 214 216 214 210 209 204 214 224 220 218 224 231 225 212
165 131 122 328 153 175 150 156 183 184 327 37 117 175 187 95 219 158 196 164 129 246 264 290 116 242 201 214 186 236 216 228 241 248 222 209 202 210 220 218 214 212 212 217 220 218 212 212 210 203 189 185 186 180 183 176 173 182 187 185 196 203 202 202 207 201 207 210 207 214 203 210 202 204 204 206 199 210 216 221 218 228 233 228 217 210
169 126 159 178 285 149 185 197 188 179 172 162 177 186 191 184 260 122 179 153 173 185 199 267 290 261 253 207 187 218 208 207 214 226 227 207 210 215 219 210 209 210 209 213 208 213 212 209 210 217 206 169 139 146 161 173 185 189 182 193 193 192 197 200 203 192 207 192 205 196 205 210 203 212 200 203 198 205 218 219 217 221 223 210 218 205
103 172 164 141 159 199 194 199 198 185 182 188 184 190 180 164 139 166 230 170 155 156 225 175 247 268 272 191 203 211 215 209 210 207 218 214 214 217 222 217 203 204 219 207 209 208 209 209 203 170 122 124 141 165 175 186 164 180 188 192 187 184 196 193 199 195 196 190 185 195 198 203 199 194 177 186 178 184 190 189 193 213 174 207 236 191
149 119 130 170 180 183 184 166 317 177 188 172 173 194 176 165 136 180 201 215 190 226 121 157 289 273 247 244 236 226 218 211 210 192 217 218 216 217 221 215 209 200 195 200 197 198 196 185 176 168 170 177 181 183 181 180 184 191 193 190 193 184 205 192 186 172 160 160 161 172 177 176 192 181 187 192 200 202 211 235 260 278 210 230 253 251
76 102 108 68 47 26 20 358 30 36 138 130 202 143 157 192 192 204 203 173 190 221 234 239 263 251 290 238 321 261 229 220 199 184 205 217 207 208 187 183 183 188 208 191 187 177 173 162 149 153 179 187 193 190 192 193 195 197 195 194 185 194 198 192 185 178 166 170 181 185 171 185 198 181 205 205 225 222 250 320 345 336 308 265 244 244
147 227 133 133 125 136 5 0 315 340 177 198 192 196 193 194 198 190 112 114 191 220 185 180 229 251 260 344 333 36 42 139 186 206 178 166 216 191 186 184 186 180 168 167 170 168 140 146 174 195 196 197 196 196 194 197 201 194 194 185 186 192 194 184 173 160 175 177 193 202 193 212 145 156 333 310 349 330 337 353 355 3 331 301 287 257
155 155 154 164 165 169 180 188 192 188 199 196 199 194 197 190 189 178 210 177 221 246 159 205 243 232 322 332 350 340 359 329 301 305 272 233 182 190 203 207 206 186 187 187 175 160 182 191 193 198 204 202 199 196 195 200 199 194 186 192 182 182 186 183 159 153 152 156 168 191 187 216 109 119 114 104 56 12 25 34 20 321 310 347 264 262
126 167 191 183 183 190 188 186 193 168 146 189 176 188 197 202 194 197 189 217 221 185 186 222 234 257 229 238 258 274 248 224 219 240 209 211 245 237 214 197 192 193 192 193 194 196 192 198 206 207 201 199 198 199 197 191 191 187 184 190 192 186 174 174 161 157 149 148 155 176 199 195 180 155 163 127 227 332 15 359 345 9 302 267 201 252
105 174 200 182 203 199 159 121 114 146 180 186 182 196 190 187 178 193 198 218 205 201 259 245 238 239 236 215 241 245 247 259 270 264 254 254 234 204 209 217 222 225 231 218 207 197 201 209 208 206 206 201 203 201 201 196 191 186 185 190 188 180 174 173 162 166 171 174 190 196 203 192 170 174 189 206 218 235 249 256 260 254 235 240 266 229
164 186 190 186 201 193 149 144 153 180 186 181 188 183 190 184 182 197 214 226 197 203 227 231 228 238 249 201 215 220 204 213 217 219 215 208 220 235 222 218 214 219 221 213 217 211 214 216 211 208 207 207 194 195 197 193 199 199 201 194 183 179 184 169 164 176 180 185 195 198 187 181 181 192 198 199 199 200 205 207 209 220 228 216 213 201
150 209 178 183 191 184 162 160 172 178 178 189 193 193 191 187 193 199 211 215 211 218 227 241 237 237 243 229 212 216 197 213 233 196 151 180 218 210 212 218 220 221 219 217 216 213 211 216 215 210 201 197 195 193 193 196 198 196 191 192 187 185 186 165 179 178 184 190 193 184 180 184 188 185 185 179 189 192 179 169 165 166 174 195 207 212
181 190 163 171 185 190 181 173 175 175 176 195 194 195 194 193 199 207 214 219 216 228 234 239 242 249 250 232 220 201 201 222 126 183 201 214 214 203 205 220 225 223 223 225 220 220 219 218 217 208 202 205 197 197 197 201 197 191 194 191 187 189 185 176 179 185 185 192 184 180 179 181 183 181 184 185 178 165 165 172 164 159 164 173 168 165
174 210 130 148 178 198 202 184 183 177 183 190 192 193 192 192 204 208 214 215 206 213 224 240 253 249 252 140 191 187 194 207 218 215 212 221 214 202 205 220 223 223 221 222 223 222 224 218 206 201 204 204 205 202 201 200 196 185 201 192 194 188 173 177 181 185 191 187 178 181 180 175 172 173 180 172 181 181 178 161 161 165 165 152 153 164
188 157 161 167 188 202 197 185 172 159 162 197 200 192 194 202 205 207 216 219 216 205 219 223 230 233 149 149 203 179 180 207 214 213 210 216 212 200 205 215 221 222 224 221 220 224 220 212 203 198 204 203 203 202 209 194 179 199 196 192 193 155 173 182 182 183 188 186 181 183 173 168 172 178 180 188 185 176 164 163 159 157 158 177 175 142
180 162 160 163 201 195 168 138 133 152 199 209 195 197 193 199 202 207 216 221 218 207 226 227 237 233 178 206 177 193 198 204 210 217 204 201 206 210 221 223 222 219 225 227 223 222 216 213 206 203 201 200 203 206 203 186 192 199 184 168 150 170 178 174 185 186 188 182 185 178 172 171 174 181 186 181 175 167 167 165 176 173 163 144 148 153
182 167 173 176 197 188 128 130 167 206 213 218 206 180 196 200 194 207 217 217 213 215 226 236 237 235 204 204 183 204 209 214 216 217 221 217 194 192 201 212 216 214 220 225 232 232 219 216 212 207 210 215 212 201 163 195 214 160 149 164 170 179 173 182 177 188 185 186 182 174 177 176 175 182 177 172 167 169 175 176 163 163 166 163 167 168
179 175 160 196 159 76 157 167 197 215 203 318 142 165 186 189 206 207 232 227 217 214 215 227 237 239 212 226 211 210 205 245 265 249 232 218 200 196 201 211 216 210 217 223 227 230 208 211 212 207 209 210 183 181 185 200 184 167 177 165 174 175 180 175 180 188 180 187 187 183 180 174 174 175 169 166 166 172 180 181 178 171 167 148 154 159
153 160 177 182 186 180 171 181 201 48 21 215 170 184 163 195 198 195 215 233 224 223 225 243 245 234 230 234 176 164 254 325 271 256 212 200 210 223 204 208 209 212 210 228 228 226 205 211 212 214 209 187 185 180 197 191 168 167 152 172 181 172 173 174 187 192 189 191 187 184 178 175 172 173 169 167 169 181 182 181 179 172 159 148 161 162
258 176 198 171 206 163 165 180 191 192 223 210 216 172 189 195 192 192 205 250 189 200 206 219 227 223 222 223 193 194 98 260 260 253 188 171 199 198 228 236 229 216 218 230 234 225 208 217 225 233 212 199 194 199 190 166 164 161 170 180 174 170 180 184 202 194 188 194 187 182 174 172 171 171 170 170 179 182 187 185 175 173 170 162 165 170
284 69 39 180 156 155 175 185 191 202 226 219 185 147 183 164 121 89 104 258 220 193 210 217 231 227 220 207 176 136 168 228 244 255 125 176 169 186 201 220 211 211 225 229 226 222 210 208 206 209 196 189 204 218 185 167 162 161 182 183 182 183 182 199 203 188 193 191 180 175 171 169 171 171 171 178 184 180 175 179 181 172 164 159 152 153
126 134 137 138 202 189 176 187 201 205 234 203 136 172 157 122 114 110 199 250 242 190 207 208 225 223 197 185 173 184 202 223 238 226 180 161 180 194 202 210 212 219 231 234 230 221 213 200 184 181 191 199 212 202 167 167 169 183 184 193 175 183 203 208 204 189 167 162 167 168 169 170 172 173 172 178 180 178 179 165 152 159 156 147 136 133
156 138 188 185 125 178 192 198 39 289 293 172 157 148 143 129 130 172 205 238 48 155 201 200 220 207 182 188 182 203 218 225 229 174 203 184 188 204 212 213 210 213 223 233 235 222 204 194 188 195 198 205 205 172 171 166 177 190 199 183 179 201 213 206 161 151 162 160 162 166 170 170 172 169 171 169 170 166 154 161 155 144 142 139 129 122
100 127 103 151 197 179 190 195 216 282 237 173 170 137 141 132 186 203 215 74 110 174 181 191 207 181 176 194 196 214 227 228 231 209 187 189 198 206 212 218 218 222 225 228 233 219 194 185 207 213 217 215 187 176 170 174 183 199 189 183 199 214 199 140 156 148 153 163 163 163 163 165 161 160 163 158 148 148 154 151 144 148 144 140 138 132
187 142 206 168 172 95 122 171 136 213 239 163 143 148 173 178 216 202 50 19 80 159 154 193 199 197 178 202 207 216 230 230 221 219 207 195 209 215 220 223 220 221 227 238 251 223 177 194 206 206 209 202 182 173 178 175 189 195 192 192 212 196 138 151 145 150 151 153 156 159 160 160 159 158 153 153 157 151 150 150 141 139 141 140 138 137
193 104 193 197 199 156 182 194 194 119 340 253 158 174 199 167 76 67 262 266 221 145 157 152 201 190 186 193 204 219 222 224 228 229 228 209 222 235 244 248 244 240 233 234 235 229 185 208 206 208 211 194 180 180 179 179 192 196 189 210 183 127 137 138 148 144 146 147 151 151 155 157 154 149 149 153 153 151 147 149 146 142 148 149 146 147
172 187 182 164 213 187 207 237 272 178 242 244 228 18 289 296 64 59 83 138 177 269 182 168 202 208 197 198 208 211 221 225 224 219 215 223 212 216 230 233 228 227 224 226 235 218 190 208 207 207 205 192 185 188 189 193 192 191 200 198 136 154 154 152 148 149 147 151 152 153 151 147 150 150 151 157 155 153 152 148 149 143 153 148 151 153
216 198 165 49 287 263 269 253 285 302 277 281 289 281 329 338 331 33 34 5 328 226 152 259 269 217 213 210 200 226 217 220 219 231 226 231 227 222 220 229 235 233 234 260 282 184 213 226 224 198 201 206 197 194 196 202 194 192 201 150 160 158 156 149 148 149 152 152 153 150 150 144 145 149 155 160 163 158 158 154 156 151 156 157 159 161
222 187 182 165 226 204 262 222 237 248 251 255 263 285 281 211 270 325 331 199 255 270 234 242 206 215 234 220 207 208 223 227 229 235 233 234 235 234 230 232 249 255 249 239 233 197 209 206 211 208 200 206 204 197 198 195 203 188 141 163 159 156 150 148 146 145 149 155 152 150 152 155 157 155 158 160 160 158 158 157 155 153 157 163 161 165
271 162 206 194 198 191 241 226 235 239 244 244 240 238 264 275 258 215 247 285 281 282 245 237 130 157 137 177 207 206 225 224 221 234 236 235 238 245 254 243 243 251 249 249 263 208 214 204 208 208 201 207 197 189 180 179 177 160 151 149 153 146 143 145 154 156 159 156 158 159 161 160 160 159 160 164 163 160 158 163 161 162 168 171 172 168
202 140 204 173 215 236 262 261 257 290 291 272 256 237 243 236 258 272 276 274 254 257 261 269 224 224 194 227 210 218 247 258 242 235 246 259 269 270 259 242 226 227 233 224 216 191 200 202 207 209 202 201 168 164 163 165 156 156 155 156 154 152 148 150 149 148 149 153 156 160 162 162 165 168 162 159 159 161 161 162 166 164 162 177 162 168
123 187 210 175 225 228 231 237 183 258 267 263 253 241 231 236 223 240 244 248 252 258 258 261 281 270 250 244 227 204 223 247 253 240 241 236 237 242 240 234 230 222 227 219 186 201 214 220 209 198 189 173 164 162 160 158 158 160 159 156 158 154 150 149 148 151 158 161 159 156 162 165 169 166 163 161 157 150 132 94 132 138 143 160 187 169
205 195 184 211 211 244 239 242 170 217 250 258 263 223 211 209 200 218 226 231 239 240 243 244 259 270 268 261 223 210 225 231 249 250 246 247 236 237 237 229 226 224 220 175 155 184 190 190 176 174 176 175 167 161 158 158 161 160 162 163 162 159 154 152 152 157 157 162 170 173 169 166 163 164 160 156 149 147 145 130 80 69 109 133 129 122